User: anonymous   Login
Location: Unspecified
(0.0000°N, 0.0000°E)
Time: 18:08:17
(UTC+00:00)
Language:

STARLINK-30489 - Orbit

View from above orbital plane
View from above orbital plane
View from above satellite
View from above satellite

Ground track
Ground track

The orbit is defined by the following mean orbital elements,

1 57974U          26145.36851499 +.00000000 +00000-0 +54820-4 0 00001
2 57974  43.0035 262.9381 0001646 276.7708  83.2956 15.27580364    08
Epoch (UTC): 25 May 2026 08:50:39
Eccentricity: 0.0001646
inclination: 43.0035°
perigee height: 482 km
apogee height: 484 km
right ascension of ascending node: 262.9381°
argument of perigee: 276.7708°
revolutions per day: 15.27580364
mean anomaly at epoch: 83.2956°

The dashed part of the orbit path shows where the satellite is in the earth's shadow,  

DLR